1500m female records:

Category Name Time Date Venue Position
FS Ellen Leggate 4:14.46 07/05/2001 Scotstoun 3
FS Jenny Tan 4:20.06 27/06/2015 Watford 11A
FS Stephanie Pennycook 4:20.19 01/07/2017 Birmingham
FU20 Stephanie Pennycook 4:24.58 24/07/2015 Glasgow 1
FU20 Annabel Simpson 4:30.74 07/09/2016 Grangemouth
FU17 Sarah Kelly 4:30.99 13/06/2008 Grangemouth 2
FU20 Katie Skorupska 4:44.52i 29/02/1996 Kelvin Hall 2
FU15 Sarah Kelly 4:45.11 08/06/2007 Grangemouth 1
FS Megan Crawford 4:50.61 24/04/2010 Pitreavie 4
FS Hester Dix 4:51.18 30/07/2008 Gateshead 3
FU17 Halina Rees 4:55.9 18/04/2010 Grangemouth 3
FU15 Halina Rees 4:56.55 20/04/2008 Edinburgh 1
FU13 Anna Hedley 4:57.00 07/09/2016 Grangemouth
FS Fiona Bracegirdle 4:58.0 18/09/2011 Perth 1
FU17 Jennifer Kibble 4:58.2 22/05/2005 Dundee 1
FU15 Louise McCullough 4:58.70 17/05/2014 Glasgow 9
FU20 Rachael Watt 4:58.7 24/06/1978
FU17 Lynne Anderson 4:58.79 13/07/1996 Wishaw 5
FU15 Fiona Bracegirdle 4:59.6 04/06/2006 Wishaw 2
FU11 Anna Dalglish 5:04.15 15/07/2015 Livingston

1500m male records:

Category Name Time Date Venue Position
MS Andrew Lemoncello 3:45.68 10/04/2009 Tempe USA 8
MU20 Jonathon Stewart 3:45.7 01/09/1998 Trafford 2
MS Richard Archer 3:45.7 29/03/1990 Stretford 1
MS Paul Kenny 3:50.9 03/09/1976 Warley 1
MU17 Adam Scott 3:52.07 14/05/2016 Manchester 1
MU20 Adam Scott 3:52.10i 12/02/2017 Emirates
MS Alan McIntosh 3:53.6 26/05/1979 Meadowbank 5
MS Graeme Walker 3:53.88 30/05/2001 Bilbao Spain 3
MU20 Bruce Millar 3:56.35 21/06/2013 Scotstoun 7A
MU20 Andrew Lemoncello 4:00.3 29/04/2001 Coatbridge 1
MU17 Euan Boyle 4:01.69 07/09/2016 Grangemouth
MU17 Jonathon Stewart 4:02.1 04/06/1996 Stretford 2
MU17 Andrew Cassells 4:04.56 17/08/1997 Birmingham 2
MU17 Bruce Millar 4:04.56 05/09/2012 Grangemouth 1r4
MU15 Adam Scott 4:08.76 17/05/2014 Glasgow 5
MU20 Paul Parkinson 4:11.6 02/08/2000 Grangemouth 7
MU17 Andrew Lemoncello 4:12.2 23/06/1999 Scotstoun 1
MU17 Philip Salter 4:12.97 07/09/2005 Grangemouth 5
MV45 John Thomson 4:16.55 31/05/2003 Pitreavie 1
MU17 Euan Berry 4:17.10 05/09/2012 Grangemouth 5r4
MU17 Ewan Paton 4:18.2 25/04/2010 Manchester 4
MV50 John Thomson 4:19.23 06/08/2009 Lahti Finland 6
MU15 Andrew Cassells 4:27.9 21/06/1995 Grangemouth 2
MV55 John Thomson 4:28.56i 30/03/2014 Budapest, Hungary 2
MU15 Andrew Lemoncello 4:28.69 16/08/1997 Grangemouth 1
MU15 Craig Michie 4:30.1 30/04/1995 Grangemouth 1
MU15 Iain McWhinnie 4:32.2 25/06/2016 Grangemouth
MU15 Bruce Millar 4:33.40 01/09/2010 Grangemouth 2
MU15 Jamie Ingledew 4:36.58 07/06/2013 Grangemouth 1 ht1
MU15 Sean Berry 4:37.22 11/06/1993 Grangemouth 4
MU15 Gavin McWhinnie 4:38.46 11/06/2016 Grangemouth
MU15 Owen Keddie 4:42.92 07/09/2016 Grangemouth